Weather Roundup
Issued by NWS Chicago, IL

Home | Current Version | Previous Version | Graphics & Text | Print | Product List | Glossary On
Versions: 1 2 3 4 5 6 7 8 9 10 11 12 13 14 15 16 17 18 19 20 21 22 23 24 25 26 27 28 29 30 31 32 33 34 35 36 37 38 39 40 41 42 43 44 45 46 47 48 49 50
000
NZUS59 KLOT 302010
HRRLOT

CHICAGO AREA WEATHER ROUNDUP
NATIONAL WEATHER SERVICE CHICAGO/ROMEOVILLE IL
200 PM CST FRI JAN 30 2015

NOTE: "FAIR" INDICATES FEW OR NO CLOUDS BELOW 12,000 FEET WITH NO
SIGNIFICANT WEATHER AND/OR OBSTRUCTIONS TO VISIBILITY.

* THESE STATIONS ARE NOT UNDER NWS QUALITY CONTROL. THEY ALSO MAY NOT
  REPORT WEATHER SUCH AS PRECIPITATION OR FOG.

ILZ005-006-012>014-019>023-302100-
NORTHEAST ILLINOIS

CITY           SKY/WX    TMP DP  RH WIND       PRES   REMARKS
OHARE          PTSUNNY   28   8  43 NW5       30.47F WCI  23
MIDWAY         PTSUNNY   31   8  38 CALM      30.47F
AURORA         SUNNY     27  11  51 W5        30.47F WCI  22
LANSING*       SUNNY     30  13  50 CALM      30.47F
JOLIET*        SUNNY     29  10  45 CALM      30.48F
WAUKEGAN       SUNNY     27   8  44 VRB5      30.45F WCI  22
DUPAGE AIRPORT SUNNY     27   9  46 W5        30.46F WCI  22
WHEELING       SUNNY     28   7  41 NW5       30.48F WCI  23
KANKAKEE*      SUNNY     30  17  58 NW5       30.48F WCI  25
MORRIS*        SUNNY     29  16  60 NW3       30.47F
LEWIS AIRPORT* SUNNY     29   9  43 CALM      30.47F
NORTHERLY IS     N/A     25  15  66 NE6         N/A  WCI  18
$$

WIZ051-052-058>065-066-070>072-302100-
SOUTHEAST WISCONSIN

CITY           SKY/WX    TMP DP  RH WIND       PRES   REMARKS
MILWAUKEE      MOSUNNY   25   9  50 E9        30.46F WCI  15
KENOSHA*       SUNNY     26   9  48 VRB6      30.45F WCI  19
RACINE*        SUNNY     25  10  53 E3        30.47F
BURLINGTON     SUNNY     24   7  49 SW3       30.46F
WAUKESHA       MOSUNNY   21   7  53 W7        30.45F WCI  13
WEST BEND      SUNNY     25   7  46 CALM      30.43F
$$

INZ001>003-010>013-019-020-302100-
NORTHWEST INDIANA

CITY           SKY/WX    TMP DP  RH WIND       PRES   REMARKS
GARY*          MOSUNNY   30  12  47 N5        30.48F WCI  25
MICHIGAN CITY* NOT AVBL
RENSSELAER*    NOT AVBL
VALPARAISO     MOSUNNY   27  13  55 W9        30.47S WCI  18
$$

LMZ740>746-302100-
SOUTHERN LAKE MICHIGAN

STATION/POSITION TIME  SKY/WX   TEMP WIND        PRES    VSBY
                                AIR  DIR/SP/G
                 (UTC)          (F)  (DEG/KT/KT) (MB)    (MI)
HARRISON CRIB    2000            24   10/  6/  8   N/A
BURNHAM HARBOR   2000            25   70/  6/  9   N/A
CALUMET HARBOR   2000            26   30/  8/ 11   N/A
BURNS HARBOR     NOT AVBL
MICHIGAN CITY    2000            27  330/ 11/ 13   N/A
$$

ABBREVIATIONS USED IN REMARKS
   TC - TEMPERATURE IN CELSIUS
  WCI - WIND CHILL INDEX
   HX - HEAT INDEX
  VSB - VISIBILITY
$$


USA.gov is the U.S. government's official web portal to all federal, state and local government web resources and services.